THORAD DELTA 1 DEB, 8439

Orbit data source: Space-Track

THORAD DELTA 1 DEB, 8439 is space debris in SSO originally from a launch on Fri, 15 Nov 1974 UTC launched from the Air Force Western Test Range (AFWTR). Debris objects in space refer to the collection of defunct objects orbiting the Earth. Examples of debris include non-operational satellites, rocket bodies, and fragments generated from explosions, collisions, or faulty payload assembly.

Loading next visibility...
Identifier
8439, 1974-089CQ
Orbit
SSO
Country
Flag of USUS
Related business
Manufacturer
Unknown
Mission
Spacecraft
Bus & Motor
Unknown
Mass
Unknown
Launch date (UTC)
1974-11-15 (51 years ago)
Launch vehicle
Unknown
Launch site
Air Force Western Test Range (AFWTR)
Object type
Payload
Rocket body
Debris
Shape & HBR
Unknown shape, 0.2 m
Radar Cross Section
Small (<0.1 m²)

Expand to show TLE details & history
Last TLE update: 13 hours ago

TLE from 13 hours ago
0 THORAD DELTA 1 DEB
1  8439U 74089CQ  26061.96038201  .00000537  00000-0  19390-2 0  9995
2  8439 102.3016 211.6328 0068980 216.4357 143.2034 13.00261118402850
Epoch: 2026-03-02T23:02Z
TLE epoch observation values (Epoch: 2026-03-02T23:02:57.005Z)
Latitude
0.00001°
Longitude
65.14898°
Altitude
1,306.019 km
Speed
7.184 km/s
True Right ascension
14h 06m 31s
True Declination
0° 00' 00"
Sunlit
Object was in full shadow at epoch
Visualization orbit readout
Latitude
Unknown
Longitude
Unknown
Altitude
Unknown
Speed
Unknown
Apparent Right ascension
Unknown
Apparent Declination
Unknown
Sunlit
N/A
Visualization observer readout
Local Sidereal Time
15:43:17
Azimuth
Unknown
Elevation
Unknown
Doppler factor
Unknown
Orbital elements
Apogee altitude
1,311.26 km
Perigee altitude
1,205.904 km
Semi-major axis
7,636.719 km
Eccentricity
0.0069
Inclination
102.3016°
RAAN
211.6328°
Arg. of periapsis
216.4357°
True anomaly
143.67361°
Mean anomaly
143.2034°
Eccentric anomaly
143.43883°
Mean motion
3.25224 °/min
Orbital period
110.69 mins
BSTAR
0.001939
Loading maneuver chart data...
Computing Atmospheric mass density...

Documentation

Showing up to 5 results
|